EW3169 Weather Reports


time (UTC)temp
C
wind
direction
speed
KPH
gust
KPH
rain 1hr
cm
rain 24hr
cm
rain mn
cm
humidity
%
barometer
mb
20211017152502 12 232 3.2 0.0 0.00 0.00 0.00 69 1005.2
20211017145534 11 355 1.6 0.0 0.00 0.00 0.00 75 1005.3
20211017142507 10 146 1.6 0.0 0.00 0.00 0.00 84 1005.9
20211017135500 10 232 0.0 0.0 0.00 0.00 0.00 88 1005.8
20211017132518 8 78 0.0 0.0 0.00 0.00 0.00 91 1006.0
20211017125535 8 5 0.0 0.0 0.00 0.00 0.00 92 1006.0
20211017122514 7 5 0.0 0.0 0.00 0.00 0.00 95 1005.9
20211017115506 7 5 0.0 0.0 0.00 0.00 0.00 96 1005.8
20211017112453 7 5 0.0 0.0 0.00 0.00 0.00 96 1005.4
20211017105527 7 5 0.0 0.0 0.00 0.00 0.00 96 1005.5
20211017102452 6 5 0.0 0.0 0.00 0.00 0.00 95 1005.5
20211017095519 7 53 1.6 0.0 0.00 0.00 0.00 91 1005.1
20211017092543 7 84 1.6 0.0 0.00 0.00 0.00 88 1004.8
20211017085530 8 80 1.6 0.0 0.00 0.00 0.00 84 1004.5
20211017082546 8 290 3.2 0.0 0.00 0.00 0.00 83 1004.2
20211017072454 9 295 3.2 0.0 0.00 0.00 0.00 83 1003.9
20211017065533 10 127 3.2 0.0 0.00 0.00 0.00 83 1003.6
20211017062454 10 215 3.2 0.0 0.00 0.00 0.00 82 1003.9
20211017055502 10 49 3.2 0.0 0.00 0.00 0.00 83 1003.8
20211017052453 10 323 4.8 0.0 0.00 0.00 0.00 82 1004.1
20211017045451 10 284 1.6 0.0 0.00 0.00 0.00 86 1004.2
20211017042448 10 282 3.2 0.0 0.00 0.00 0.00 84 1004.2
20211017035537 11 313 4.8 0.0 0.00 0.00 2.16 83 1003.6
20211017032516 11 277 3.2 0.0 0.00 0.00 2.16 85 1004.5
20211017025540 11 315 1.6 0.0 0.00 0.00 2.16 88 1003.8
20211017022514 11 296 1.6 0.0 0.00 0.00 2.13 92 1002.9
20211017015458 12 244 0.0 0.0 0.00 0.00 2.13 98 1003.8
20211017012506 12 79 0.0 0.0 0.00 0.00 2.13 98 1004.5
20211017005509 12 79 0.0 0.0 0.00 0.00 2.13 97 1004.1
20211017002534 12 209 0.0 0.0 0.00 0.00 2.01 97 1004.1
20211016235518 13 69 0.0 0.0 0.00 0.00 1.85 97 1004.1
20211016232550 13 22 0.0 0.0 0.00 0.00 1.68 95 1003.8
20211016225531 14 196 3.2 0.0 0.00 0.00 1.60 91 1002.6
20211016222534 15 119 0.0 0.0 0.00 0.00 1.52 95 1002.1
20211016215532 16 5 0.0 0.0 0.00 0.00 1.32 97 1001.4
20211016205500 16 355 0.0 0.0 0.00 0.00 1.17 97 1000.1
20211016202518 16 86 1.6 0.0 0.00 0.00 1.09 97 1000.2
20211016192510 17 59 0.0 0.0 0.00 0.00 1.04 95 1000.3
20211016185535 17 69 1.6 0.0 0.00 0.00 0.97 91 999.7
20211016175541 20 142 3.2 0.0 0.00 0.00 0.43 88 998.1
20211016172541 20 71 4.8 0.0 0.00 0.00 0.43 87 998.1
20211016165535 20 78 6.4 0.0 0.00 0.00 0.43 88 998.8
20211016162510 20 88 4.8 0.0 0.00 0.00 0.43 88 999.8
20211016155504 19 41 6.4 0.0 0.00 0.00 0.43 91 1000.3